Palm Springs, CA

2:56 AM PDT on May 26, 2017 (GMT -0700)
Palm Springs International

Weather History for KPSP - November, 2014

Change the Weather History Date:

Sunday, November 9, 2014

  Actual Average Record
Temperature  
Mean Temperature 75 °F 67 °F  
Max Temperature 90 °F 80 °F 94 °F (1956)
Min Temperature 59 °F 55 °F 37 °F (1946)
Degree Days  
Heating Degree Days 0 1  
Month to date heating degree days 7 9  
Since 1 July heating degree days 7 13  
Cooling Degree Days 10 4  
Month to date cooling degree days 58 44  
Year to date cooling degree days 4910 4106  
Growing Degree Days 26 (Base 50)    
Moisture  
Dew Point 32 °F    
Average Humidity 23    
Maximum Humidity 34    
Minimum Humidity 11    
Precipitation  
Precipitation 0.00 in 0.01 in 0.18 in (1922)
Month to date precipitation 0.00 0.11  
Year to date precipitation 1.94 4.44  
Since 1 July precipitation 1.19  
Snow  
Snow 0.00 in - - ()
Month to date snowfall 0.0  
Year to date snowfall 0.0  
Snow Depth 0.00 in    
Sea Level Pressure  
Sea Level Pressure 29.87 in    
Wind  
Wind Speed 5 mph (North)    
Max Wind Speed 12 mph    
Max Gust Speed 14 mph    
Visibility 10 miles    
Events      
T = Trace of Precipitation, MM = Missing Value Source: NWS Daily Summary

Daily Weather History Graph

Daily Weather History Graph

Search for Another Location

Airport or City:

Trip Planner

Search our weather history database for the weather conditions in past years. The results will help you decide how hot, cold, wet, or windy it might be!

Date:

Astronomy

Nov. 09, 2014 Rise Set
Actual Time 6:12 AM PST 4:46 PM PST
Civil Twilight 5:46 AM PST 5:12 PM PST
Nautical Twilight 5:16 AM PST 5:42 PM PST
Astronomical Twilight 4:47 AM PST 6:12 PM PST
Moon 7:25 PM PST (11/9) 8:46 AM PST (11/9)
Length of Visible Light 11h 26m
Length of Day
10h 34m
Waning Gibbous, 90% of the Moon is Illuminated
Nov 9
Waning Gibbous
Nov 14
Last Quarter
Nov 22
New
Nov 29
First Quarter
Dec 6
Full

Hourly Weather History & Observations

Time (PST) Temp. Dew Point Humidity Pressure Visibility Wind Dir Wind Speed Gust Speed Precip Events Conditions
12:53 AM 66.0 °F 30.0 °F 26% 29.99 in 10.0 mi NNW 10.4 mph - N/A   Clear
1:53 AM 66.0 °F 30.0 °F 26% 29.98 in 10.0 mi NNW 6.9 mph - N/A   Clear
2:53 AM 64.9 °F 33.1 °F 31% 29.96 in 10.0 mi Calm Calm - N/A   Clear
3:53 AM 66.0 °F 28.9 °F 25% 29.95 in 10.0 mi NNW 5.8 mph - N/A   Clear
4:53 AM 66.9 °F 28.9 °F 24% 29.95 in 10.0 mi NW 6.9 mph - N/A   Clear
5:53 AM 63.0 °F 33.1 °F 33% 29.95 in 10.0 mi Calm Calm - N/A   Clear
6:53 AM 64.9 °F 28.9 °F 26% 29.96 in 10.0 mi NNW 8.1 mph - N/A   Clear
7:53 AM 73.0 °F 30.0 °F 20% 29.97 in 10.0 mi NW 5.8 mph - N/A   Clear
8:53 AM 80.1 °F 28.9 °F 15% 29.95 in 10.0 mi Calm Calm - N/A   Clear
9:53 AM 82.9 °F 28.0 °F 14% 29.94 in 10.0 mi Calm Calm - N/A   Clear
10:53 AM 87.1 °F 28.9 °F 12% 29.91 in 10.0 mi Calm Calm - N/A   Clear
11:53 AM 89.1 °F 28.0 °F 11% 29.87 in 10.0 mi East 6.9 mph - N/A   Clear
12:53 PM 89.1 °F 28.0 °F 11% 29.83 in 10.0 mi ESE 6.9 mph - N/A   Clear
1:53 PM 89.1 °F 28.9 °F 12% 29.81 in 10.0 mi East 9.2 mph - N/A   Clear
2:53 PM 89.1 °F 28.9 °F 12% 29.80 in 10.0 mi East 8.1 mph - N/A   Clear
3:53 PM 87.1 °F 30.9 °F 13% 29.77 in 10.0 mi ESE 9.2 mph - N/A   Clear
4:53 PM 82.9 °F 34.0 °F 17% 29.77 in 10.0 mi ESE 3.5 mph - N/A   Clear
5:53 PM 80.1 °F 37.9 °F 22% 29.78 in 10.0 mi Calm Calm - N/A   Clear
6:53 PM 73.9 °F 39.0 °F 28% 29.78 in 10.0 mi West 3.5 mph - N/A   Clear
7:53 PM 73.9 °F 30.9 °F 21% 29.78 in 10.0 mi NNW 4.6 mph - N/A   Clear
8:53 PM 73.0 °F 33.1 °F 23% 29.78 in 10.0 mi WSW 3.5 mph - N/A   Clear
9:53 PM 69.1 °F 34.0 °F 27% 29.78 in 10.0 mi NNW 4.6 mph - N/A   Clear
10:53 PM 70.0 °F 37.9 °F 31% 29.77 in 10.0 mi Calm Calm - N/A   Clear
11:53 PM 66.0 °F 36.0 °F 33% 29.76 in 10.0 mi NW 3.5 mph - N/A   Clear